Regional Weather Roundup
Issued by NWS

Home | Current Version | Previous Version | Graphics & Text | Print | Product List | Glossary On
Versions: 1 2 3 4 5 6 7 8 9 10 11 12 13 14 15 16 17 18 19 20 21 22 23 24 25 26 27 28 29 30 31 32 33 34 35 36 37 38 39 40 41 42 43 44 45 46 47 48 49 50
000
ASUS43 KFSD 081010
RWRSD

WEATHER ROUNDUP FOR SOUTH DAKOTA
NATIONAL WEATHER SERVICE SIOUX FALLS SD
400 AM CST MON FEB 08 2016

NOTE: "FAIR" INDICATES FEW OR NO CLOUDS BELOW 12,000 FEET WITH NO
SIGNIFICANT WEATHER AND/OR OBSTRUCTIONS TO VISIBILITY.


SDZ001>005-009-010-012>017-081100-
NORTHWEST AND NORTH CENTRAL SOUTH DAKOTA

CITY           SKY/WX    TMP DP  RH WIND       PRES   REMARKS
BUFFALO          N/A     23  13  65 NW23      30.26R WCI   7
FAITH            N/A     23  14  68 NW16      30.27R WCI  10
MOBRIDGE       CLEAR     27  17  66 NW22G29   30.16R WCI  13
$$

SDZ012>016-024>037-041>051-057-063-072>074-081100-
SOUTHWEST AND SOUTH CENTRAL SOUTH DAKOTA

CITY           SKY/WX    TMP DP  RH WIND       PRES   REMARKS
RAPID CTY ARPT CLEAR     28   9  44 N24G31    30.29R WCI  14
PIERRE         CLEAR     27  16  63 NW24G37   30.19R WCI  12
CUSTER         CLEAR     21  -8  27 N23G33    30.21R WCI   5
ELLSWORTH AFB  CLEAR     28   9  45 NW23G30   30.28S WCI  14
PHILIP         CLEAR     26  17  68 NW15      30.28R WCI  14
PINE RIDGE     CLEAR     19  10  68 NW5       30.32R WCI  12
SPEARFISH      FAIR      25   9  50 W17G23    30.35R WCI  11
WINNER         FAIR      27  17  66 NW29G38   30.17S WCI  11
$$

SDZ004>011-016>023-039-040-081100-
NORTHEAST SOUTH DAKOTA

CITY           SKY/WX    TMP DP  RH WIND       PRES   REMARKS
ABERDEEN       FLURRIES  24  16  71 N22G31    30.11R WCI   9
WATERTOWN      LGT SNOW  19  12  74 N32G39    29.99R WCI  -1
BROOKINGS      FLURRIES  18  13  80 N30G37    29.95S WCI  -1
SISSETON         N/A     17  12  80 N25G35    30.03R WCI  -1
$$

SDZ017-020-022-023-036>040-048>070-081100-
SOUTHEAST SOUTH DAKOTA

CITY           SKY/WX    TMP DP  RH WIND       PRES   REMARKS
SIOUX FALLS    CLOUDY    22  15  75 N30G43    30.00R WCI   4
HURON          CLOUDY    26  18  71 N21G28    30.08R WCI  12
CHAMBERLAIN    CLOUDY    28  17  65 NW24G44   30.15S WCI  13
MITCHELL       CLOUDY    28  19  69 N30G40    30.09S WCI  12
YANKTON        CLOUDY    28  18  64 NW30G37   30.04S WCI  13
$$

ABBREVIATIONS USED IN REMARKS
   TC - TEMPERATURE IN CELSIUS
  WCI - WIND CHILL INDEX
   HX - HEAT INDEX
  VSB - VISIBILITY




USA.gov is the U.S. government's official web portal to all federal, state and local government web resources and services.